QPF
0.00 0.00 0.00 0.00 0.00 0.00 0.00 0.00 0.00 0.00 0.00 0.00 0.01 0.02 0.03 0.02 0.02 0.02 0.03 0.04 0.11 0.20 0.36 0.55 0.71 0.79 0.76 0.71 0.75 0.68 0.54 0.48 0.36 0.27 0.21 0.19 0.19 0.20 0.22 0.24 0.23 0.22 0.22 0.23
0.00 0.00 0.00 0.00 0.00 0.00 0.00 0.00 0.00 0.01 0.01 0.01 0.01 0.02 0.03 0.03 0.03 0.04 0.06 0.06 0.14 0.30 0.43 0.64 0.84 0.87 0.82 0.76 0.67 0.57 0.46 0.43 0.39 0.32 0.25 0.22 0.22 0.23 0.24 0.28 0.25 0.27 0.27 0.28
0.00 0.00 0.00 0.00 0.00 0.00 0.00 0.00 0.01 0.02 0.02 0.03 0.02 0.04 0.05 0.05 0.05 0.05 0.05 0.07 0.14 0.34 0.50 0.52 0.58 0.62 0.60 0.58 0.55 0.47 0.41 0.43 0.38 0.36 0.32 0.29 0.31 0.32 0.30 0.31 0.33 0.34 0.33 0.31
0.00 0.00 0.00 0.00 0.00 0.00 0.00 0.00 0.01 0.02 0.02 0.05 0.02 0.05 0.08 0.08 0.09 0.08 0.07 0.07 0.10 0.20 0.31 0.41 0.43 0.47 0.51 0.53 0.53 0.44 0.37 0.38 0.36 0.33 0.32 0.31 0.29 0.30 0.34 0.39 0.42 0.39 0.38 0.37
0.00 0.00 0.00 0.00 0.00 0.00 0.00 0.00 0.00 0.02 0.02 0.05 0.04 0.06 0.11 0.11 0.10 0.11 0.10 0.08 0.08 0.11 0.16 0.22 0.29 0.33 0.35 0.35 0.35 0.31 0.27 0.29 0.28 0.28 0.28 0.27 0.26 0.26 0.27 0.30 0.34 0.34 0.30 0.26
0.00 0.00 0.00 0.00 0.00 0.00 0.00 0.00 0.00 0.01 0.02 0.05 0.04 0.07 0.13 0.17 0.18 0.17 0.13 0.10 0.08 0.10 0.17 0.18 0.18 0.23 0.21 0.17 0.18 0.17 0.15 0.17 0.17 0.18 0.23 0.26 0.28 0.30 0.32 0.27 0.22 0.19 0.17 0.18
0.00 0.00 0.00 0.00 0.00 0.00 0.00 0.00 0.00 0.01 0.02 0.04 0.04 0.09 0.15 0.18 0.23 0.28 0.19 0.14 0.09 0.10 0.12 0.14 0.13 0.11 0.09 0.09 0.10 0.10 0.08 0.09 0.10 0.11 0.13 0.16 0.20 0.23 0.25 0.24 0.19 0.16 0.13 0.13
0.01 0.00 0.00 0.00 0.00 0.00 0.00 0.00 0.00 0.01 0.02 0.03 0.06 0.12 0.17 0.22 0.21 0.18 0.15 0.11 0.08 0.06 0.05 0.06 0.11 0.10 0.05 0.04 0.04 0.06 0.07 0.06 0.06 0.07 0.08 0.10 0.13 0.14 0.15 0.13 0.11 0.09 0.07 0.05
0.02 0.01 0.00 0.00 0.00 0.00 0.00 0.00 0.00 0.00 0.01 0.03 0.11 0.19 0.29 0.31 0.25 0.16 0.10 0.07 0.05 0.04 0.02 0.02 0.03 0.05 0.04 0.03 0.03 0.03 0.04 0.04 0.04 0.05 0.07 0.11 0.11 0.10 0.07 0.06 0.05 0.04 0.03 0.02
0.03 0.02 0.00 0.00 0.00 0.00 0.00 0.00 0.00 0.01 0.02 0.03 0.08 0.16 0.29 0.43 0.39 0.28 0.19 0.09 0.04 0.03 0.02 0.01 0.01 0.02 0.02 0.02 0.02 0.01 0.01 0.02 0.02 0.02 0.03 0.03 0.04 0.03 0.02 0.02 0.02 0.02 0.02 0.01
0.04 0.04 0.01 0.01 0.01 0.01 0.01 0.01 0.01 0.03 0.05 0.06 0.11 0.19 0.26 0.30 0.32 0.28 0.17 0.09 0.04 0.03 0.02 0.01 0.01 0.01 0.01 0.01 0.01 0.01 0.01 0.01 0.01 0.01 0.01 0.01 0.01 0.01 0.01 0.01 0.01 0.01 0.01 0.01
0.02 0.03 0.02 0.02 0.02 0.02 0.01 0.01 0.01 0.02 0.04 0.06 0.13 0.30 0.39 0.44 0.40 0.27 0.20 0.11 0.05 0.03 0.01 0.01 0.01 0.01 0.01 0.01 0.01 0.00 0.00 0.00 0.00 0.00 0.00 0.00 0.00 0.00 0.00 0.00 0.00 0.00 0.00 0.00
0.01 0.03 0.03 0.04 0.02 0.02 0.02 0.01 0.01 0.02 0.04 0.08 0.14 0.30 0.38 0.41 0.38 0.24 0.14 0.09 0.07 0.04 0.02 0.02 0.02 0.01 0.01 0.01 0.00 0.00 0.00 0.00 0.00 0.00 0.00 0.00 0.00 0.00 0.00 0.00 0.00 0.00 0.00 0.00
0.02 0.04 0.03 0.04 0.03 0.03 0.02 0.01 0.01 0.01 0.03 0.07 0.11 0.18 0.27 0.26 0.19 0.16 0.13 0.09 0.06 0.04 0.02 0.01 0.01 0.01 0.01 0.00 0.00 0.00 0.00 0.00 0.00 0.00 0.00 0.00 0.00 0.00 0.00 0.00 0.00 0.00 0.00 0.00
0.02 0.04 0.04 0.03 0.03 0.03 0.04 0.03 0.02 0.02 0.02 0.04 0.07 0.13 0.20 0.16 0.10 0.08 0.05 0.04 0.03 0.02 0.02 0.01 0.01 0.01 0.01 0.01 0.01 0.01 0.01 0.00 0.00 0.00 0.00 0.00 0.00 0.00 0.00 0.00 0.00 0.00 0.00 0.00
0.02 0.04 0.05 0.06 0.06 0.07 0.10 0.09 0.10 0.06 0.03 0.04 0.06 0.11 0.14 0.11 0.07 0.05 0.04 0.05 0.05 0.04 0.03 0.03 0.03 0.02 0.02 0.01 0.01 0.01 0.01 0.00 0.00 0.00 0.00 0.00 0.00 0.00 0.00 0.00 0.00 0.00 0.00 0.00
0.02 0.04 0.06 0.09 0.07 0.09 0.12 0.11 0.08 0.05 0.04 0.05 0.05 0.07 0.06 0.06 0.07 0.07 0.07 0.07 0.06 0.04 0.04 0.05 0.06 0.06 0.04 0.02 0.02 0.01 0.01 0.01 0.00 0.00 0.00 0.00 0.00 0.00 0.00 0.00 0.01 0.00 0.00 0.00
0.02 0.04 0.05 0.08 0.07 0.11 0.12 0.12 0.08 0.03 0.03 0.04 0.02 0.03 0.04 0.04 0.04 0.04 0.04 0.04 0.04 0.03 0.02 0.03 0.04 0.04 0.04 0.02 0.01 0.01 0.01 0.01 0.01 0.01 0.00 0.00 0.00 0.00 0.00 0.00 0.00 0.00 0.00 0.00
0.01 0.02 0.04 0.05 0.07 0.08 0.06 0.08 0.07 0.03 0.02 0.02 0.01 0.01 0.02 0.03 0.03 0.04 0.04 0.04 0.04 0.03 0.03 0.03 0.03 0.03 0.02 0.02 0.01 0.01 0.01 0.01 0.01 0.01 0.01 0.00 0.01 0.01 0.00 0.00 0.00 0.00 0.00 0.00
0.01 0.01 0.02 0.05 0.08 0.06 0.05 0.05 0.03 0.02 0.02 0.03 0.01 0.01 0.02 0.03 0.02 0.02 0.03 0.03 0.04 0.03 0.04 0.04 0.03 0.02 0.01 0.01 0.01 0.01 0.01 0.00 0.01 0.01 0.01 0.00 0.00 0.00 0.00 0.00 0.00 0.00 0.00 0.00
0.01 0.01 0.01 0.02 0.04 0.03 0.02 0.02 0.03 0.03 0.03 0.03 0.02 0.02 0.02 0.04 0.03 0.02 0.02 0.02 0.02 0.03 0.03 0.03 0.02 0.01 0.01 0.01 0.01 0.01 0.01 0.00 0.00 0.00 0.00 0.00 0.00 0.00 0.00 0.00 0.00 0.00 0.00 0.00
0.00 0.01 0.01 0.01 0.02 0.01 0.01 0.01 0.01 0.01 0.01 0.01 0.01 0.02 0.03 0.04 0.04 0.02 0.02 0.02 0.02 0.02 0.02 0.02 0.02 0.02 0.01 0.01 0.01 0.01 0.01 0.00 0.00 0.00 0.00 0.00 0.00 0.00 0.00 0.00 0.00 0.00 0.00 0.00
0.00 0.00 0.00 0.01 0.01 0.00 0.00 0.00 0.00 0.00 0.00 0.00 0.00 0.00 0.01 0.01 0.01 0.01 0.01 0.01 0.02 0.02 0.02 0.02 0.02 0.02 0.02 0.01 0.01 0.01 0.01 0.00 0.00 0.00 0.00 0.00 0.00 0.00 0.00 0.00 0.00 0.00 0.00 0.00
0.00 0.00 0.00 0.00 0.00 0.00 0.00 0.00 0.00 0.00 0.00 0.00 0.00 0.00 0.00 0.00 0.00 0.01 0.01 0.01 0.02 0.02 0.01 0.01 0.01 0.01 0.01 0.01 0.01 0.01 0.01 0.00 0.00 0.00 0.00 0.00 0.00 0.00 0.00 0.00 0.00 0.00 0.00 0.00
0.00 0.00 0.00 0.00 0.00 0.00 0.00 0.00 0.00 0.00 0.00 0.00 0.00 0.00 0.00 0.00 0.00 0.00 0.00 0.01 0.01 0.01 0.01 0.01 0.01 0.01 0.01 0.00 0.00 0.00 0.00 0.00 0.00 0.00 0.00 0.00 0.00 0.00 0.01 0.01 0.00 0.00 0.00 0.00
0.00 0.00 0.00 0.00 0.00 0.00 0.00 0.00 0.00 0.00 0.00 0.00 0.00 0.00 0.00 0.00 0.00 0.00 0.00 0.00 0.01 0.01 0.01 0.01 0.01 0.01 0.01 0.00 0.00 0.00 0.00 0.00 0.00 0.00 0.00 0.00 0.00 0.00 0.01 0.00 0.00 0.00 0.00 0.00
MSLP
1012.58 1013.24 1013.64 1013.76 1013.60 1013.23 1012.72 1012.16 1011.64 1011.21 1010.90 1010.71 1010.61 1010.56 1010.52 1010.46 1010.34 1010.18 1009.98 1009.76 1009.56 1009.39 1009.27 1009.20 1009.18 1009.19 1009.22 1009.27 1009.34 1009.45 1009.61 1009.86 1010.22 1010.70 1011.30 1012.00 1012.75 1013.52 1014.26 1014.91 1015.44 1015.86 1016.17 1016.39
1012.73 1013.22 1013.43 1013.39 1013.11 1012.69 1012.21 1011.75 1011.39 1011.15 1011.04 1011.03 1011.08 1011.14 1011.16 1011.12 1011.01 1010.86 1010.67 1010.50 1010.35 1010.26 1010.21 1010.20 1010.20 1010.19 1010.16 1010.11 1010.04 1010.01 1010.03 1010.17 1010.45 1010.89 1011.49 1012.23 1013.06 1013.92 1014.75 1015.49 1016.11 1016.60 1016.95 1017.20
1012.65 1012.94 1012.97 1012.76 1012.39 1011.96 1011.55 1011.25 1011.08 1011.07 1011.18 1011.36 1011.55 1011.70 1011.76 1011.73 1011.61 1011.45 1011.28 1011.14 1011.07 1011.06 1011.11 1011.19 1011.26 1011.28 1011.23 1011.12 1010.97 1010.82 1010.73 1010.76 1010.96 1011.35 1011.93 1012.69 1013.56 1014.48 1015.39 1016.21 1016.91 1017.47 1017.88 1018.16
1012.40 1012.48 1012.32 1011.98 1011.55 1011.15 1010.85 1010.72 1010.79 1011.01 1011.35 1011.71 1012.03 1012.25 1012.33 1012.28 1012.14 1011.96 1011.79 1011.70 1011.70 1011.80 1011.97 1012.17 1012.34 1012.43 1012.42 1012.31 1012.11 1011.89 1011.72 1011.66 1011.78 1012.10 1012.64 1013.38 1014.25 1015.20 1016.15 1017.03 1017.79 1018.40 1018.86 1019.19
1012.10 1011.97 1011.63 1011.18 1010.72 1010.37 1010.21 1010.28 1010.57 1011.03 1011.57 1012.10 1012.53 1012.80 1012.89 1012.82 1012.64 1012.44 1012.28 1012.23 1012.31 1012.52 1012.82 1013.16 1013.46 1013.66 1013.73 1013.65 1013.46 1013.21 1012.98 1012.85 1012.89 1013.14 1013.62 1014.29 1015.13 1016.06 1017.01 1017.90 1018.69 1019.33 1019.83 1020.19
1011.86 1011.53 1011.05 1010.51 1010.05 1009.77 1009.74 1010.00 1010.49 1011.16 1011.87 1012.53 1013.05 1013.36 1013.45 1013.36 1013.16 1012.94 1012.80 1012.79 1012.96 1013.28 1013.72 1014.21 1014.65 1014.98 1015.14 1015.14 1014.98 1014.73 1014.47 1014.29 1014.25 1014.42 1014.80 1015.40 1016.16 1017.03 1017.93 1018.79 1019.57 1020.22 1020.73 1021.10
1011.76 1011.27 1010.67 1010.08 1009.63 1009.43 1009.52 1009.93 1010.59 1011.41 1012.25 1013.01 1013.58 1013.91 1014.00 1013.90 1013.70 1013.49 1013.38 1013.44 1013.69 1014.13 1014.70 1015.32 1015.89 1016.34 1016.61 1016.68 1016.57 1016.34 1016.08 1015.86 1015.76 1015.85 1016.14 1016.63 1017.29 1018.06 1018.88 1019.68 1020.41 1021.04 1021.54 1021.91
1011.84 1011.23 1010.55 1009.94 1009.52 1009.39 1009.58 1010.10 1010.87 1011.77 1012.68 1013.48 1014.08 1014.43 1014.53 1014.44 1014.26 1014.10 1014.05 1014.18 1014.52 1015.06 1015.73 1016.46 1017.13 1017.68 1018.03 1018.18 1018.12 1017.93 1017.67 1017.44 1017.30 1017.32 1017.52 1017.91 1018.46 1019.11 1019.83 1020.54 1021.20 1021.78 1022.24 1022.60
1012.03 1011.36 1010.68 1010.09 1009.71 1009.64 1009.90 1010.47 1011.28 1012.20 1013.12 1013.92 1014.52 1014.87 1015.00 1014.95 1014.83 1014.74 1014.77 1014.98 1015.41 1016.03 1016.77 1017.56 1018.30 1018.90 1019.31 1019.51 1019.50 1019.35 1019.12 1018.88 1018.73 1018.71 1018.84 1019.14 1019.58 1020.13 1020.74 1021.35 1021.93 1022.44 1022.87 1023.20
1012.24 1011.60 1010.96 1010.44 1010.13 1010.11 1010.40 1010.98 1011.76 1012.65 1013.52 1014.28 1014.85 1015.21 1015.37 1015.39 1015.36 1015.37 1015.50 1015.80 1016.30 1016.97 1017.75 1018.55 1019.30 1019.91 1020.34 1020.56 1020.59 1020.48 1020.29 1020.09 1019.95 1019.91 1020.01 1020.26 1020.62 1021.08 1021.59 1022.11 1022.61 1023.05 1023.43 1023.74
1012.35 1011.82 1011.30 1010.89 1010.68 1010.71 1011.01 1011.55 1012.27 1013.06 1013.85 1014.54 1015.07 1015.44 1015.65 1015.75 1015.83 1015.96 1016.20 1016.59 1017.14 1017.83 1018.59 1019.36 1020.07 1020.64 1021.04 1021.27 1021.32 1021.25 1021.12 1020.97 1020.88 1020.87 1020.98 1021.20 1021.51 1021.91 1022.34 1022.79 1023.22 1023.61 1023.95 1024.23
1012.30 1011.94 1011.60 1011.34 1011.23 1011.33 1011.63 1012.11 1012.73 1013.42 1014.09 1014.70 1015.19 1015.56 1015.83 1016.04 1016.24 1016.50 1016.85 1017.31 1017.90 1018.57 1019.29 1019.98 1020.60 1021.10 1021.45 1021.65 1021.73 1021.70 1021.63 1021.57 1021.54 1021.59 1021.73 1021.96 1022.26 1022.61 1023.00 1023.39 1023.76 1024.11 1024.42 1024.68
1012.07 1011.93 1011.79 1011.71 1011.73 1011.89 1012.19 1012.62 1013.14 1013.70 1014.26 1014.78 1015.24 1015.64 1015.98 1016.29 1016.63 1017.01 1017.45 1017.98 1018.58 1019.21 1019.85 1020.44 1020.95 1021.35 1021.64 1021.81 1021.89 1021.92 1021.92 1021.94 1022.00 1022.12 1022.31 1022.56 1022.86 1023.20 1023.55 1023.90 1024.23 1024.55 1024.84 1025.09
1011.71 1011.80 1011.88 1011.99 1012.14 1012.37 1012.67 1013.04 1013.47 1013.92 1014.39 1014.84 1015.28 1015.70 1016.12 1016.55 1017.01 1017.51 1018.05 1018.62 1019.21 1019.80 1020.34 1020.82 1021.21 1021.52 1021.73 1021.87 1021.96 1022.03 1022.11 1022.21 1022.36 1022.55 1022.79 1023.07 1023.38 1023.69 1024.01 1024.33 1024.63 1024.92 1025.20 1025.45
1011.33 1011.63 1011.92 1012.19 1012.46 1012.75 1013.06 1013.39 1013.74 1014.11 1014.50 1014.91 1015.34 1015.81 1016.31 1016.85 1017.42 1018.03 1018.64 1019.26 1019.84 1020.37 1020.83 1021.20 1021.49 1021.70 1021.85 1021.97 1022.07 1022.18 1022.32 1022.50 1022.72 1022.97 1023.25 1023.54 1023.84 1024.13 1024.42 1024.70 1024.97 1025.24 1025.50 1025.75
1011.06 1011.53 1011.96 1012.36 1012.73 1013.06 1013.37 1013.67 1013.97 1014.28 1014.62 1015.01 1015.46 1015.97 1016.55 1017.20 1017.88 1018.57 1019.26 1019.90 1020.47 1020.95 1021.34 1021.63 1021.84 1021.99 1022.10 1022.20 1022.32 1022.47 1022.66 1022.89 1023.15 1023.44 1023.72 1024.01 1024.28 1024.53 1024.78 1025.02 1025.25 1025.50 1025.74 1025.99
1010.98 1011.55 1012.08 1012.55 1012.97 1013.33 1013.63 1013.90 1014.16 1014.44 1014.76 1015.15 1015.62 1016.19 1016.85 1017.58 1018.35 1019.12 1019.86 1020.52 1021.10 1021.55 1021.90 1022.14 1022.30 1022.41 1022.51 1022.61 1022.75 1022.93 1023.16 1023.42 1023.69 1023.98 1024.25 1024.50 1024.72 1024.92 1025.11 1025.30 1025.50 1025.72 1025.95 1026.18
1011.13 1011.73 1012.28 1012.78 1013.20 1013.55 1013.84 1014.09 1014.32 1014.59 1014.90 1015.31 1015.82 1016.44 1017.17 1017.96 1018.80 1019.63 1020.40 1021.09 1021.67 1022.12 1022.45 1022.67 1022.82 1022.93 1023.03 1023.15 1023.32 1023.52 1023.77 1024.03 1024.30 1024.56 1024.79 1024.99 1025.16 1025.30 1025.43 1025.57 1025.73 1025.92 1026.13 1026.35
1011.46 1012.03 1012.55 1013.01 1013.41 1013.73 1014.00 1014.23 1014.45 1014.71 1015.04 1015.47 1016.02 1016.68 1017.45 1018.29 1019.17 1020.03 1020.84 1021.54 1022.13 1022.59 1022.92 1023.15 1023.32 1023.45 1023.58 1023.74 1023.93 1024.15 1024.40 1024.66 1024.91 1025.12 1025.30 1025.44 1025.55 1025.63 1025.72 1025.82 1025.95 1026.11 1026.31 1026.52
1011.85 1012.35 1012.81 1013.21 1013.56 1013.85 1014.09 1014.31 1014.53 1014.80 1015.15 1015.61 1016.18 1016.88 1017.67 1018.54 1019.43 1020.30 1021.12 1021.83 1022.43 1022.90 1023.26 1023.52 1023.72 1023.89 1024.06 1024.25 1024.47 1024.70 1024.95 1025.19 1025.41 1025.59 1025.72 1025.81 1025.87 1025.91 1025.96 1026.04 1026.16 1026.31 1026.50 1026.71
1012.18 1012.60 1012.99 1013.33 1013.62 1013.88 1014.10 1014.32 1014.57 1014.86 1015.24 1015.72 1016.32 1017.02 1017.82 1018.69 1019.57 1020.43 1021.24 1021.95 1022.55 1023.04 1023.42 1023.72 1023.96 1024.18 1024.39 1024.61 1024.85 1025.10 1025.34 1025.57 1025.76 1025.90 1026.00 1026.06 1026.09 1026.12 1026.16 1026.23 1026.35 1026.51 1026.70 1026.91
1012.34 1012.70 1013.02 1013.31 1013.57 1013.81 1014.04 1014.29 1014.56 1014.90 1015.31 1015.82 1016.43 1017.14 1017.93 1018.77 1019.63 1020.46 1021.23 1021.93 1022.52 1023.02 1023.42 1023.76 1024.04 1024.29 1024.54 1024.79 1025.04 1025.29 1025.53 1025.74 1025.91 1026.04 1026.12 1026.17 1026.20 1026.24 1026.29 1026.38 1026.52 1026.69 1026.89 1027.10
1012.30 1012.61 1012.89 1013.16 1013.42 1013.67 1013.93 1014.22 1014.55 1014.94 1015.40 1015.94 1016.57 1017.28 1018.04 1018.84 1019.66 1020.44 1021.18 1021.84 1022.42 1022.91 1023.33 1023.68 1023.98 1024.27 1024.53 1024.80 1025.06 1025.31 1025.54 1025.74 1025.91 1026.03 1026.12 1026.18 1026.23 1026.29 1026.37 1026.49 1026.65 1026.84 1027.04 1027.25
1012.06 1012.35 1012.63 1012.90 1013.19 1013.49 1013.81 1014.17 1014.57 1015.03 1015.55 1016.13 1016.77 1017.47 1018.21 1018.97 1019.72 1020.45 1021.14 1021.76 1022.31 1022.79 1023.20 1023.56 1023.88 1024.17 1024.44 1024.71 1024.97 1025.21 1025.43 1025.62 1025.79 1025.92 1026.02 1026.11 1026.19 1026.29 1026.41 1026.55 1026.73 1026.93 1027.14 1027.34
1011.69 1011.99 1012.29 1012.60 1012.94 1013.31 1013.72 1014.17 1014.66 1015.20 1015.78 1016.40 1017.06 1017.75 1018.47 1019.18 1019.88 1020.56 1021.19 1021.76 1022.28 1022.73 1023.13 1023.48 1023.79 1024.07 1024.34 1024.59 1024.83 1025.06 1025.27 1025.46 1025.63 1025.77 1025.90 1026.02 1026.14 1026.27 1026.42 1026.59 1026.77 1026.97 1027.17 1027.35
1011.29 1011.62 1011.95 1012.32 1012.73 1013.19 1013.70 1014.25 1014.84 1015.46 1016.11 1016.78 1017.46 1018.14 1018.83 1019.50 1020.15 1020.77 1021.35 1021.88 1022.36 1022.78 1023.15 1023.48 1023.77 1024.04 1024.28 1024.51 1024.73 1024.94 1025.13 1025.32 1025.49 1025.65 1025.80 1025.95 1026.10 1026.26 1026.42 1026.60 1026.78 1026.96 1027.13 1027.27
Thickness
5677 5660 5651 5659 5665 5666 5670 5670 5674 5692 5710 5702 5695 5695 5701 5711 5714 5714 5715 5717 5718 5719 5723 5728 5727 5726 5728 5729 5729 5728 5730 5729 5730 5730 5729 5726 5722 5718 5716 5714 5712 5712 5712 5712
5654 5650 5667 5675 5676 5674 5672 5669 5676 5690 5706 5700 5689 5685 5691 5698 5700 5703 5705 5707 5709 5711 5714 5717 5720 5720 5717 5717 5719 5721 5720 5721 5724 5724 5724 5721 5715 5708 5705 5701 5700 5701 5702 5702
5648 5663 5679 5677 5673 5673 5674 5672 5677 5684 5694 5695 5687 5672 5678 5684 5688 5691 5692 5696 5699 5703 5704 5706 5709 5710 5708 5705 5704 5707 5710 5710 5714 5716 5715 5712 5706 5700 5695 5692 5690 5689 5690 5689
5658 5672 5676 5673 5674 5677 5669 5689 5691 5690 5680 5670 5681 5656 5665 5673 5676 5679 5680 5684 5686 5689 5693 5694 5696 5697 5696 5694 5692 5693 5697 5698 5701 5704 5704 5702 5696 5690 5684 5680 5679 5677 5677 5676
5658 5670 5669 5669 5678 5684 5681 5696 5693 5688 5677 5668 5671 5658 5658 5669 5668 5670 5672 5674 5675 5677 5680 5681 5682 5683 5684 5684 5682 5681 5685 5687 5689 5690 5691 5690 5685 5679 5674 5670 5669 5667 5664 5662
5668 5679 5679 5679 5689 5692 5693 5688 5683 5675 5664 5652 5666 5658 5652 5663 5667 5665 5664 5664 5665 5666 5668 5670 5669 5670 5671 5673 5671 5670 5672 5674 5675 5676 5677 5676 5673 5667 5663 5658 5655 5653 5650 5647
5657 5670 5681 5687 5679 5685 5682 5661 5644 5644 5638 5644 5665 5657 5649 5661 5665 5661 5657 5654 5654 5656 5657 5658 5658 5657 5657 5658 5658 5658 5660 5660 5661 5661 5661 5660 5658 5654 5650 5645 5642 5639 5636 5634
5639 5646 5671 5682 5677 5671 5673 5662 5639 5634 5635 5641 5655 5646 5645 5651 5652 5651 5648 5647 5646 5644 5645 5645 5644 5644 5644 5644 5644 5644 5645 5645 5644 5645 5645 5643 5642 5639 5635 5631 5628 5626 5623 5620
5642 5647 5676 5685 5689 5683 5672 5665 5664 5648 5646 5636 5638 5640 5640 5642 5641 5640 5638 5637 5635 5633 5633 5633 5631 5631 5630 5630 5630 5630 5631 5630 5629 5629 5628 5627 5625 5623 5619 5617 5615 5612 5610 5607
5654 5646 5666 5681 5689 5688 5680 5674 5656 5645 5633 5626 5634 5637 5637 5635 5635 5632 5629 5627 5624 5622 5622 5621 5619 5619 5618 5617 5616 5616 5616 5616 5614 5613 5613 5611 5609 5608 5605 5603 5601 5598 5596 5593
5657 5646 5657 5668 5667 5668 5671 5667 5657 5643 5639 5627 5622 5628 5646 5640 5634 5629 5624 5619 5616 5614 5612 5610 5609 5609 5608 5606 5604 5602 5602 5601 5599 5598 5597 5596 5594 5593 5591 5589 5587 5584 5582 5579
5656 5645 5642 5657 5673 5679 5673 5667 5658 5642 5636 5634 5626 5624 5643 5637 5630 5625 5618 5612 5609 5606 5604 5602 5600 5599 5597 5594 5591 5589 5589 5588 5586 5585 5584 5582 5580 5579 5577 5575 5573 5570 5567 5565
5659 5645 5636 5644 5654 5664 5663 5668 5663 5652 5639 5632 5625 5622 5630 5627 5621 5616 5611 5605 5601 5597 5594 5592 5590 5588 5586 5583 5580 5578 5576 5575 5573 5572 5570 5568 5566 5565 5563 5560 5558 5556 5553 5551
5666 5646 5638 5635 5641 5650 5653 5661 5664 5653 5635 5631 5631 5625 5620 5617 5613 5607 5601 5597 5593 5589 5586 5582 5579 5577 5575 5573 5570 5567 5565 5564 5563 5561 5558 5555 5553 5551 5549 5547 5545 5543 5540 5537
5662 5646 5647 5650 5656 5658 5656 5657 5659 5653 5645 5634 5630 5627 5621 5616 5610 5602 5596 5591 5586 5582 5578 5574 5570 5566 5564 5562 5559 5557 5555 5553 5550 5547 5545 5542 5540 5539 5537 5535 5533 5531 5528 5526
5656 5647 5647 5648 5658 5657 5652 5652 5652 5648 5643 5635 5628 5619 5618 5612 5604 5596 5590 5585 5579 5574 5570 5565 5561 5558 5554 5552 5550 5547 5544 5541 5539 5536 5533 5531 5530 5528 5526 5524 5522 5520 5517 5515
5653 5647 5639 5637 5649 5648 5634 5642 5643 5639 5636 5630 5620 5616 5610 5602 5597 5591 5584 5579 5573 5568 5562 5557 5553 5549 5545 5543 5540 5537 5534 5532 5529 5526 5524 5522 5520 5518 5516 5515 5512 5509 5507 5505
5657 5646 5636 5633 5637 5621 5632 5648 5646 5634 5627 5626 5620 5612 5606 5598 5589 5583 5578 5572 5565 5559 5553 5549 5544 5540 5537 5534 5532 5529 5526 5523 5520 5517 5515 5513 5511 5509 5507 5505 5503 5501 5498 5495
5667 5652 5637 5628 5625 5625 5635 5642 5639 5627 5614 5616 5610 5602 5594 5586 5578 5570 5567 5562 5556 5550 5544 5539 5535 5532 5529 5526 5524 5521 5518 5515 5512 5509 5508 5506 5504 5501 5499 5497 5495 5493 5490 5488
5666 5656 5642 5631 5623 5619 5630 5643 5645 5630 5607 5609 5605 5596 5588 5583 5574 5565 5559 5553 5546 5541 5536 5531 5527 5524 5521 5518 5515 5512 5509 5506 5504 5502 5501 5499 5497 5494 5492 5490 5487 5485 5483 5481
5653 5648 5640 5631 5623 5626 5637 5644 5641 5616 5608 5608 5601 5594 5585 5579 5573 5564 5554 5546 5540 5534 5529 5524 5520 5516 5512 5510 5507 5504 5501 5498 5497 5496 5494 5492 5490 5487 5485 5483 5481 5479 5477 5475
5649 5641 5636 5629 5617 5619 5639 5638 5627 5619 5616 5607 5597 5589 5581 5573 5565 5556 5548 5540 5534 5528 5522 5518 5513 5508 5505 5503 5499 5496 5493 5493 5492 5490 5488 5485 5483 5482 5479 5476 5474 5472 5470 5467
5652 5647 5636 5629 5624 5631 5635 5632 5627 5622 5611 5601 5592 5583 5576 5567 5558 5550 5542 5534 5528 5522 5517 5511 5506 5501 5498 5496 5493 5489 5488 5488 5486 5483 5481 5479 5477 5475 5473 5470 5467 5464 5462 5460
5655 5652 5639 5630 5629 5631 5629 5626 5621 5616 5607 5598 5589 5580 5572 5562 5553 5544 5537 5529 5523 5517 5511 5506 5500 5495 5491 5490 5488 5486 5484 5483 5480 5477 5475 5473 5470 5468 5466 5463 5461 5459 5456 5454
5660 5653 5638 5629 5628 5627 5624 5621 5615 5609 5601 5592 5582 5575 5566 5557 5548 5540 5532 5525 5519 5513 5506 5500 5495 5490 5486 5485 5483 5482 5480 5478 5475 5472 5470 5468 5465 5462 5460 5458 5456 5454 5453 5451
5665 5655 5643 5634 5636 5628 5620 5618 5614 5605 5595 5587 5578 5568 5560 5553 5544 5536 5528 5521 5515 5508 5502 5496 5491 5486 5483 5481 5479 5478 5477 5474 5471 5468 5466 5463 5461 5459 5456 5453 5451 5451 5450 5449